Location: Unspecified
(0.0000°N, 0.0000°E)
Time: 18:45:21
(UTC+00:00)

THORAD DELTA 1 DEB - Pass Details

Date: 22 February 2026
Orbit: 1451 x 1738 km, 101.5° (Epoch: 9 March)

Event Time Altitude Azimuth Distance (km) Brightness Sun altitude
Rises 21:46:45 0° 193° (SSW) 4,687 ? -52.2°
Reaches altitude 10° 21:50:30 10° 208° (SSW) 3,663 ? -53.1°
Maximum altitude 21:56:24 21° 252° (WSW) 2,836 ? -54.5°
Drops below altitude 10° 22:02:13 10° 298° (WNW) 3,573 ? -55.9°
Sets 22:05:53 0° 313° (NW) 4,540 ? -56.8°
